Location: Averydale Access
(43.1361°N, 93.1446°W)
Time: 21:48:44
(UTC+00:00)

Daily predictions for brighter satellites

Satellite Brightness Start Highest point End
(mag) Time Altitude Azimuth Time Altitude Azimuth Time Altitude Azimuth
Cosmos 2237 Rocket 2.6 12:00:24 10° SSW 12:06:00 67° ESE 12:11:38 10° NNE
Cosmos 1933 4.0 12:06:17 23° NW 12:07:54 32° W 12:11:25 10° SSW
ERS-2 1.4 12:05:44 10° NNE 12:08:41 89° SE 12:11:36 10° SSW
ATLAS 3B R/B 4.0 12:05:56 18° WNW 12:08:48 23° NNW 12:14:34 10° NNE
CZ-4C R/B 4.0 12:03:00 10° NNW 12:09:34 39° NE 12:17:21 10° ESE
SAR-Lupe-2 3.9 12:06:14 10° NNE 12:09:48 66° ESE 12:13:21 10° S
PSLV R/B 3.5 12:07:36 10° N 12:11:52 62° WNW 12:16:04 10° SSW
Cosmos 2322 4.2 12:10:00 10° WSW 12:15:10 35° NW 12:20:21 10° N
Cosmos 1862 3.5 12:12:16 10° SSW 12:15:55 42° WNW 12:19:36 10° N
COSMO-SKYMED 1 3.5 12:12:12 10° SSW 12:15:56 28° W 12:18:43 15° NW
Cosmos 2151 2.8 12:11:49 10° SSW 12:15:59 77° W 12:20:14 10° N
Meteor 2-3 Rocket 4.3 12:11:30 10° SW 12:16:31 34° WNW 12:21:34 10° N
SeaSat 1 4.0 12:13:23 10° ESE 12:17:42 32° NE 12:22:03 10° N
USA 215 3.2 12:14:05 10° NE 12:20:38 83° NW 12:27:10 10° SW
Meteor 1-31 Rocket 4.0 12:17:29 10° NNE 12:21:09 45° E 12:24:47 10° S
SJ-7 4.4 12:19:37 10° NNE 12:23:44 86° WNW 12:27:49 10° SSW
BlueWalker 3 3.9 12:25:35 12° WSW 12:27:04 15° SW 12:29:14 10° SSW
SMAP 3.3 12:29:38 10° NNE 12:34:19 77° ESE 12:38:58 10° S
Cosmos 1842 Rocket 3.6 12:31:41 10° NNW 12:36:04 62° W 12:40:26 10° S
H-2A R/B 3.4 12:36:38 10° NNW 12:39:27 16° WNW 12:42:19 10° W
Helios 1B rocket 2.7 12:38:23 10° N 12:42:09 42° WNW 12:45:54 10° SW
CENTAUR R/B 3.5 12:34:45 10° NW 12:43:07 76° NE 12:52:21 10° SE
Cosmos 2219 Rocket 3.7 12:40:15 10° W 12:43:45 16° NW 12:47:17 10° N
Cosmos 1437 Rocket 3.2 12:41:08 10° SW 12:44:33 35° WNW 12:47:58 10° N
CZ-4B R/B 3.9 12:40:54 10° NNE 12:44:54 89° ESE 12:49:02 10° SSW
DELTA 2 DEB (DPAF) 4.5 12:47:12 10° S 12:51:17 43° W 12:55:24 10° NNW
USA 267 3.5 12:47:50 10° ESE 12:54:22 75° NE 13:00:55 10° NW
Cosmos 1302 Rocket 4.1 12:49:54 10° NNW 12:55:02 62° WSW 13:00:10 10° S
Cosmos 1943 Rocket 2.2 12:49:39 10° NNW 12:55:13 87° WSW 13:00:43 10° SSE
Cosmos 1461 3.3 12:52:06 10° SSW 12:56:33 78° ESE 13:00:58 10° NE
SL-16 R/B 3.0 12:56:44 10° S 13:02:18 59° ESE 13:07:53 10° NNE
NOSS 3-4 (A) 4.2 22:53:07 10° NW 23:00:13 81° SW 23:08:21 10° SSE
NOSS 3-4 (C) 4.2 22:53:16 10° NW 23:00:18 80° WSW 23:08:20 10° SSE
PSLV R/B 3.8 22:59:47 10° S 23:04:00 75° WSW 23:08:18 10° NNW
CORIOLIS 4.5 23:00:31 10° SE 23:05:33 43° ENE 23:10:37 10° N
USA 234 3.9 23:00:59 10° ENE 23:07:05 41° SE 23:13:10 10° SSW
Cosmos 1140 Rocket 4.1 23:04:07 10° N 23:08:50 34° ENE 23:13:29 10° SE
Cosmos 1076 Rocket 3.5 23:05:20 10° N 23:09:42 73° E 23:14:01 10° SSE
SJ-7 4.4 23:06:26 10° SSE 23:10:21 63° ENE 23:14:21 10° N
Cosmos 2227 Rocket 3.7 23:05:47 10° WSW 23:10:49 33° NW 23:15:54 10° N
Cosmos 1602 4.1 23:09:01 10° N 23:12:33 39° ENE 23:16:05 10° SSE
Nadezhda 4 Rocket 4.2 23:11:25 10° SSE 23:17:17 49° E 23:23:08 10° NNE
ARGOS 4.3 23:12:46 10° S 23:18:02 50° W 23:23:19 10° NNW
Cosmos 1782 4.2 23:17:52 10° SE 23:20:35 18° E 23:23:19 10° NE
Cosmos 1500 3.0 23:18:39 10° N 23:22:12 84° W 23:25:43 10° S
DMSP B5D2-2 4.1 23:18:30 10° NNE 23:23:44 78° ESE 23:28:57 10° S
Cosmos 1603 4.2 23:21:17 10° N 23:26:36 38° ENE 23:31:49 10° SE
SL-8 R/B 3.7 23:22:05 10° WNW 23:26:53 76° NNE 23:31:40 10° ESE
Helios 1B rocket 3.0 23:24:04 10° S 23:27:56 59° WSW 23:31:51 10° NNW
Cosmos 1812 Rocket 4.0 23:24:30 10° SSE 23:28:32 39° E 23:32:36 10° NNE
Helios 1A 3.8 23:25:22 10° NE 23:29:04 31° E 23:32:44 10° SSE
ISS -3.4 23:27:17 10° WNW 23:30:38 66° SW 23:33:56 10° SE
CZ-4B R/B 3.6 23:27:23 10° SSE 23:30:52 56° ENE 23:34:27 10° N
CZ-4B R/B 3.8 23:32:26 10° SE 23:37:09 40° ENE 23:41:46 10° N
SMAP 3.0 23:33:28 10° SSE 23:38:07 86° ENE 23:42:48 10° NNW
SL-16 R/B 3.9 23:34:16 10° NW 23:39:27 37° WSW 23:44:35 10° S
NOAA 6 4.4 23:42:26 10° SE 23:47:11 39° ENE 23:51:56 10° N
Cosmos 1943 3.1 23:44:40 10° NNW 23:50:20 82° ENE 23:55:59 10° SSE
USA 276 3.1 23:48:22 10° WNW 23:50:28 25° NNW 23:51:20 20° NNE
APEX 2.8 23:51:44 10° SW 23:54:44 64° WNW 23:56:41 18° NNE
